ANZ659 NZCH-NZQN

Flight info

Callsign ANZ659
Flight time 0h 45m
Altitude 28000
Route MUKVO2P GUPUT Y266 ELRUV ELRUV5B
Aircraft A320/M-SDE3FGHIRWY/LB1

Departure

Time 2026-05-04 07:34
Airport Christchurch International Airport (NZCH)

Arrival

Time 2026-05-04 08:19
Airport Queenstown Airport (NZQN)
Time Latitude Longitude Altitude Speed Heading
2026-05-04 07:03 -43.48867 172.53785 109 ft 0 kts 130°
2026-05-04 07:26 -43.48861 172.53775 109 ft 4 kts 130°
2026-05-04 07:27 -43.48844 172.53746 108 ft 4 kts 130°
2026-05-04 07:27 -43.48826 172.53718 109 ft 4 kts 130°
2026-05-04 07:27 -43.48809 172.53689 109 ft 4 kts 130°
2026-05-04 07:27 -43.48791 172.53661 109 ft 4 kts 130°
2026-05-04 07:28 -43.48788 172.53655 108 ft 0 kts 130°
2026-05-04 07:30 -43.48791 172.53656 108 ft 2 kts 152°
2026-05-04 07:30 -43.48814 172.53636 106 ft 7 kts 221°
2026-05-04 07:30 -43.48833 172.53613 109 ft 5 kts 220°
2026-05-04 07:31 -43.48880 172.53562 109 ft 12 kts 216°
2026-05-04 07:31 -43.48963 172.53481 112 ft 16 kts 220°
2026-05-04 07:33 -43.49485 172.52611 125 ft 15 kts 304°
2026-05-04 07:33 -43.49414 172.52614 125 ft 12 kts 43°
2026-05-04 07:33 -43.49309 172.52737 121 ft 44 kts 40°
2026-05-04 07:33 -43.48883 172.53226 113 ft 112 kts 40°
2026-05-04 07:34 -43.48153 172.54070 120 ft 159 kts 38°
2026-05-04 07:34 -43.47307 172.55047 759 ft 157 kts 38°
2026-05-04 07:34 -43.46348 172.55771 1478 ft 157 kts 25°
2026-05-04 07:34 -43.45345 172.56392 2085 ft 162 kts 24°
2026-05-04 07:35 -43.44237 172.57034 2404 ft 184 kts 15°
2026-05-04 07:35 -43.42907 172.56908 2678 ft 208 kts 334°
2026-05-04 07:35 -43.41829 172.55450 3071 ft 233 kts 300°
2026-05-04 07:35 -43.41372 172.53217 3565 ft 256 kts 268°
2026-05-04 07:36 -43.41955 172.50882 4378 ft 266 kts 234°
2026-05-04 07:36 -43.43193 172.48975 5344 ft 268 kts 230°
2026-05-04 07:38 -43.51118 172.33684 10740 ft 320 kts 235°
2026-05-04 07:38 -43.52006 172.32007 10938 ft 332 kts 235°
2026-05-04 07:38 -43.53385 172.29409 11535 ft 339 kts 234°
2026-05-04 07:38 -43.54794 172.26764 12241 ft 344 kts 235°
2026-05-04 07:39 -43.56212 172.24102 12942 ft 347 kts 235°
2026-05-04 07:39 -43.57649 172.21396 13645 ft 351 kts 235°
2026-05-04 07:39 -43.59099 172.18658 14344 ft 355 kts 235°
2026-05-04 07:39 -43.60557 172.15901 14949 ft 359 kts 235°
2026-05-04 07:40 -43.62036 172.13101 15533 ft 363 kts 235°
2026-05-04 07:40 -43.63525 172.10277 16105 ft 367 kts 235°
2026-05-04 07:40 -43.65034 172.07414 16681 ft 371 kts 235°
2026-05-04 07:40 -43.66562 172.04512 17248 ft 375 kts 235°
2026-05-04 07:41 -43.68101 172.01585 17823 ft 379 kts 235°
2026-05-04 07:41 -43.69657 171.98619 18407 ft 383 kts 235°
2026-05-04 07:41 -43.71231 171.95613 18961 ft 387 kts 235°
2026-05-04 07:41 -43.72814 171.92585 19507 ft 390 kts 235°
2026-05-04 07:42 -43.74411 171.89532 20070 ft 393 kts 235°
2026-05-04 07:42 -43.76018 171.86462 20639 ft 395 kts 235°
2026-05-04 07:42 -43.77633 171.83375 21204 ft 398 kts 235°
2026-05-04 07:42 -43.79240 171.80301 21725 ft 400 kts 235°
2026-05-04 07:43 -43.80896 171.77126 22245 ft 403 kts 235°
2026-05-04 07:43 -43.82515 171.74015 22731 ft 405 kts 235°
2026-05-04 07:43 -43.84107 171.70775 23217 ft 407 kts 240°
2026-05-04 07:43 -43.85552 171.67379 23699 ft 410 kts 240°
2026-05-04 07:44 -43.87007 171.63967 24161 ft 413 kts 240°
2026-05-04 07:44 -43.88476 171.60530 24562 ft 415 kts 240°
2026-05-04 07:44 -43.89952 171.57070 24981 ft 417 kts 240°
2026-05-04 07:44 -43.91427 171.53603 25390 ft 419 kts 240°
2026-05-04 07:45 -43.92914 171.50107 25792 ft 421 kts 240°
2026-05-04 07:45 -43.94404 171.46596 26192 ft 423 kts 240°
2026-05-04 07:45 -43.95901 171.43069 26586 ft 425 kts 240°
2026-05-04 07:45 -43.97404 171.39519 26993 ft 427 kts 240°
2026-05-04 07:46 -43.98906 171.35964 27413 ft 429 kts 240°
2026-05-04 07:46 -44.00420 171.32381 27828 ft 431 kts 240°
2026-05-04 07:46 -44.01938 171.28786 28236 ft 432 kts 240°
2026-05-04 07:46 -44.03461 171.25172 28451 ft 433 kts 240°
2026-05-04 07:47 -44.06492 171.17963 28485 ft 432 kts 240°
2026-05-04 07:49 -44.18551 170.89082 28488 ft 431 kts 240°
2026-05-04 07:49 -44.21558 170.81857 28485 ft 430 kts 240°
2026-05-04 07:50 -44.24549 170.74628 28483 ft 430 kts 240°
2026-05-04 07:50 -44.27518 170.67443 28482 ft 430 kts 240°
2026-05-04 07:51 -44.30500 170.60209 28470 ft 430 kts 240°
2026-05-04 07:51 -44.33479 170.52960 28473 ft 430 kts 240°
2026-05-04 07:52 -44.36444 170.45712 28473 ft 430 kts 241°
2026-05-04 07:52 -44.39411 170.38451 28477 ft 430 kts 241°
2026-05-04 07:54 -44.51237 170.09371 28463 ft 430 kts 241°
2026-05-04 07:55 -44.54174 170.02077 28470 ft 429 kts 241°
2026-05-04 07:55 -44.57105 169.94790 28475 ft 429 kts 241°
2026-05-04 07:56 -44.60033 169.87484 28477 ft 429 kts 241°
2026-05-04 07:56 -44.61967 169.82648 28476 ft 429 kts 241°
2026-05-04 07:57 -44.63916 169.77779 28486 ft 429 kts 241°
2026-05-04 07:57 -44.66833 169.70457 28483 ft 429 kts 241°
2026-05-04 07:58 -44.69720 169.63182 28473 ft 429 kts 241°
2026-05-04 07:58 -44.72629 169.55854 28477 ft 429 kts 241°
2026-05-04 07:59 -44.75537 169.48525 28471 ft 429 kts 241°
2026-05-04 07:59 -44.76987 169.44864 27999 ft 429 kts 241°
2026-05-04 07:59 -44.78440 169.41180 27232 ft 428 kts 242°
2026-05-04 08:00 -44.79875 169.37527 26631 ft 424 kts 242°
2026-05-04 08:00 -44.81262 169.33893 26009 ft 419 kts 246°
2026-05-04 08:00 -44.82295 169.30089 25384 ft 415 kts 253°
2026-05-04 08:02 -44.88205 169.03779 21247 ft 388 kts 254°
2026-05-04 08:02 -44.89008 169.00164 20736 ft 385 kts 254°
2026-05-04 08:02 -44.89805 168.96573 20218 ft 382 kts 254°
2026-05-04 08:03 -44.90550 168.93012 19713 ft 377 kts 259°
2026-05-04 08:03 -44.90898 168.89422 19218 ft 372 kts 269°
2026-05-04 08:03 -44.90834 168.85792 18687 ft 369 kts 274°
2026-05-04 08:03 -44.90704 168.82188 18120 ft 366 kts 274°
2026-05-04 08:04 -44.90581 168.78624 17594 ft 362 kts 274°
2026-05-04 08:04 -44.90461 168.75099 17062 ft 358 kts 274°
2026-05-04 08:04 -44.90341 168.71604 16521 ft 355 kts 274°
2026-05-04 08:04 -44.90286 168.68133 15975 ft 354 kts 268°
2026-05-04 08:05 -44.90668 168.64715 15423 ft 353 kts 257°
2026-05-04 08:05 -44.91534 168.61474 14873 ft 354 kts 246°
2026-05-04 08:05 -44.92641 168.58380 14325 ft 352 kts 245°
2026-05-04 08:05 -44.93723 168.55341 14116 ft 340 kts 246°
2026-05-04 08:06 -44.94756 168.52422 13983 ft 326 kts 246°
2026-05-04 08:06 -44.95751 168.49601 13852 ft 314 kts 246°
2026-05-04 08:06 -44.96695 168.46928 13717 ft 293 kts 246°
2026-05-04 08:06 -44.97572 168.44447 13592 ft 273 kts 247°
2026-05-04 08:08 -45.03427 168.28770 11057 ft 256 kts 232°
2026-05-04 08:08 -45.04771 168.27101 10642 ft 260 kts 220°
2026-05-04 08:10 -45.16247 168.31520 8141 ft 228 kts 103°
2026-05-04 08:11 -45.16484 168.33699 7821 ft 221 kts 86°
2026-05-04 08:11 -45.15826 168.37836 7168 ft 210 kts 57°
2026-05-04 08:11 -45.15148 168.39636 6878 ft 205 kts 56°
2026-05-04 08:12 -45.14506 168.41358 6567 ft 188 kts 57°
2026-05-04 08:12 -45.13886 168.43018 6321 ft 193 kts 57°
2026-05-04 08:12 -45.13257 168.44697 6036 ft 193 kts 58°
2026-05-04 08:12 -45.12633 168.46367 5756 ft 191 kts 58°
2026-05-04 08:13 -45.12017 168.48016 5478 ft 189 kts 59°
2026-05-04 08:13 -45.11401 168.49659 5215 ft 187 kts 59°
2026-05-04 08:13 -45.10792 168.51283 4947 ft 187 kts 59°
2026-05-04 08:13 -45.10184 168.52902 4673 ft 186 kts 59°
2026-05-04 08:14 -45.09579 168.54513 4412 ft 185 kts 59°
2026-05-04 08:14 -45.08976 168.56116 4153 ft 184 kts 59°
2026-05-04 08:14 -45.08376 168.57716 3893 ft 184 kts 60°
2026-05-04 08:16 -45.04832 168.67088 2376 ft 141 kts 57°
2026-05-04 08:16 -45.04214 168.68153 2178 ft 140 kts 42°
2026-05-04 08:16 -45.03454 168.69009 1967 ft 140 kts 39°
2026-05-04 08:17 -45.02817 168.70031 1759 ft 139 kts 56°
2026-05-04 08:17 -45.02402 168.71250 1582 ft 137 kts 71°
2026-05-04 08:17 -45.02158 168.72552 1376 ft 136 kts 77°
2026-05-04 08:17 -45.01956 168.73844 1170 ft 130 kts 77°
2026-05-04 08:19 -45.01668 168.75690 1168 ft 15 kts 261°
2026-05-04 08:19 -45.01698 168.75498 1169 ft 24 kts 257°
2026-05-04 08:20 -45.01736 168.75250 1165 ft 27 kts 258°
2026-05-04 08:20 -45.01777 168.74982 1165 ft 28 kts 257°
2026-05-04 08:20 -45.01823 168.74701 1165 ft 30 kts 257°
2026-05-04 08:20 -45.01866 168.74430 1167 ft 27 kts 257°
2026-05-04 08:21 -45.01905 168.74180 1168 ft 13 kts 258°
2026-05-04 08:21 -45.01983 168.74093 1165 ft 17 kts 204°
2026-05-04 08:21 -45.02046 168.74047 1163 ft 7 kts 232°
2026-05-04 08:21 -45.02082 168.73983 1164 ft 10 kts 207°
2026-05-04 08:22 -45.02109 168.73964 1164 ft 1 kts 205°
2026-05-04 08:22 -45.02110 168.73964 1164 ft 0 kts 205°